[[{"header":{"parameterUnit":"m.s-1","parameterCategory":1,"la1":30.2991,"la2":30.254,"lo1":-89.0895,"lo2":-89.0444,"dy":0.0017,"dx":0.0017,"nx":28,"ny":28,"refTime":"2024-08-04T21:00:00:Z","depth":0,"parameterNumber":2,"parameterNumberName":"U-component_of_WINDS"},"data":[0,0,0,0,0,0,0,0,0,0,0,0,0,0,0,0,0,0,0,0,0,0,0,0,0,0,0,0,0,0,0,0,0,0,0,0,0,0,0,0,0,0,0,0,0,0,0,0,0,0,0,0,0,0,0,0,0,0,0.2995,0.2996,0,0.3128,0.313,0.3131,0.3167,0.3166,0.3166,0.3165,0.3306,0.3311,0.3315,0,0,0,0,0,0,0,0,0,0,0,0,0,0.2778,0.2782,0.2995,0.2996,0.2998,0.3128,0.313,0.3132,0.3167,0.3166,0.3165,0.3164,0.3305,0.331,0.3316,0,0,0,0,0,0,0,0,0,0,0,0,0,0.2888,0.2783,0.2994,0.3031,0.3036,0.3128,0.313,0.3132,0.3168,0.3166,0.3165,0.3164,0.3303,0.331,0.3316,0.3382,0,0,0.3337,0.334,0,0,0,0,0,0,0,0,0.2882,0.2896,0.3024,0.3029,0.3034,0.313,0.3105,0.3216,0.3168,0.3118,0.3165,0.3163,0.3249,0.326,0.3288,0.3389,0.3395,0.3338,0.3342,0.3345,0.3347,0,0,0,0,0,0,0,0.2874,0.289,0.3048,0.3026,0.3032,0.3044,0.3058,0.3126,0.3189,0.3122,0.3125,0.314,0.3251,0.3281,0.3291,0.3397,0.3337,0.3343,0.3348,0.335,0.3563,0.3565,0,0,0,0,0,0,0.2859,0.2884,0.3043,0.3052,0.2953,0.3049,0.3065,0.31,0.3188,0.32,0.3141,0.3141,0.327,0.3283,0.3297,0.3382,0.3345,0.3351,0.3355,0.3562,0.3564,0.3565,0,0,0,0,0,0,0.2854,0.2873,0.3038,0.2969,0.299,0.3054,0.3094,0.3104,0.3133,0.3202,0.3214,0.3159,0.327,0.3287,0.3361,0.3387,0.3354,0.336,0.356,0.3562,0.3564,0.3552,0,0,0,0,0,0,0.2848,0.2871,0.2895,0.2969,0.2994,0.3098,0.3095,0.3107,0.3144,0.3146,0.3223,0.3234,0.327,0.3351,0.3368,0.3396,0.3365,0.3558,0.3561,0.3564,0.355,0.3554,0.3556,0,0,0,0,0,0.284,0.2886,0.2896,0.2915,0.3025,0.3099,0.3114,0.3153,0.3146,0.3172,0.3217,0.3232,0.3382,0.3358,0.3378,0.3408,0.3556,0.356,0.3563,0.3549,0.3553,0.3556,0,0,0,0,0,0,0.2815,0.2896,0.2908,0.2979,0.3032,0.3105,0.3139,0.3156,0.3213,0.3212,0.326,0.3277,0.3349,0.3386,0.3358,0.3479,0.347,0.3477,0.3452,0.3456,0.3459,0.3449,0.3371,0,0,0,0,0,0.2817,0.2869,0.2938,0.2994,0.302,0.3075,0.3109,0.3135,0.3192,0.3215,0.3265,0.3322,0.3383,0.3421,0.348,0.3556,0.3575,0.3587,0.359,0.3592,0.3599,0.3645,0.3652,0.3577,0.3577,0.3577,0,0,0.2823,0.2874,0.2904,0.2991,0.3035,0.309,0.3094,0.3151,0.3194,0.3225,0.3298,0.3337,0.3404,0.348,0.3516,0.3513,0.3624,0.3597,0.3598,0.3603,0.365,0.3657,0.3663,0.358,0.3579,0.3579,0,0,0.2862,0.2904,0.2957,0.3002,0.3068,0.3105,0.3118,0.319,0.3216,0.329,0.3316,0.3368,0.347,0.3518,0.3556,0.3616,0.3634,0.3635,0.3651,0.3696,0.3702,0.3707,0.3732,0.374,0.3641,0.3641,0.3641,0,0.2861,0.2944,0.2983,0.304,0.3079,0.3109,0.3165,0.3206,0.329,0.3317,0.3312,0.3443,0.349,0.358,0.3595,0.3623,0.3642,0.3626,0.3697,0.3703,0.3709,0.3733,0.3742,0.364,0.364,0.364,0.364,0,0.2941,0.2998,0.3033,0.3112,0.3155,0.3211,0.3262,0.3301,0.3324,0.3362,0.3439,0.3497,0.357,0.3593,0.3615,0.3687,0.3684,0.3687,0.3679,0.3716,0.3739,0.3749,0.364,0.364,0.364,0.364,0,0,0.2967,0.3068,0.3081,0.3118,0.3195,0.3242,0.3301,0.3371,0.3406,0.3463,0.3516,0.3603,0.3608,0.3651,0.368,0.3719,0.3767,0.3719,0.3721,0.3728,0.3854,0.3852,0.3861,0.3779,0.3781,0.3782,0.3849,0,0.3018,0.3122,0.3161,0.3248,0.3304,0.3334,0.3387,0.3441,0.3479,0.3534,0.3576,0.3638,0.3639,0.3665,0.3705,0.3753,0.3794,0.3748,0.3832,0.3834,0.3816,0.3873,0.3871,0.3931,0.3858,0.386,0.3861,0,0.309,0.3148,0.324,0.3314,0.3339,0.3384,0.3454,0.3505,0.3569,0.3594,0.3643,0.367,0.3737,0.3724,0.3818,0.3787,0.3824,0.3853,0.3856,0.3867,0.3851,0.3888,0.395,0.396,0.3875,0.3874,0.3873,0,0.3103,0.3204,0.3273,0.3304,0.3391,0.3423,0.3461,0.3524,0.3565,0.3626,0.3654,0.3723,0.3761,0.3815,0.3861,0.3847,0.3953,0.3943,0.3979,0.3978,0.4001,0.3999,0.4072,0.4021,0.402,0.402,0.402,0,0.3157,0.3213,0.3281,0.3323,0.3389,0.3434,0.3498,0.3538,0.3594,0.3648,0.3679,0.3729,0.3786,0.3844,0.3881,0.3956,0.3973,0.3997,0.4007,0.3996,0.3993,0.4022,0.4019,0.4023,0.4022,0.4022,0.4021,0,0.3182,0.3229,0.3307,0.3383,0.3404,0.3449,0.3515,0.356,0.36,0.3668,0.3686,0.375,0.382,0.3872,0.3963,0.3988,0.4069,0.4078,0.4047,0.4053,0.4086,0.4083,0.4182,0.4199,0.4134,0.4134,0.4135,0,0.3214,0.3258,0.3339,0.3376,0.3414,0.3474,0.3516,0.3563,0.3607,0.3685,0.3721,0.3794,0.3854,0.3967,0.4023,0.4094,0.4106,0.4136,0.4117,0.4106,0.411,0.4108,0.4114,0.4139,0.4139,0.414,0.414,0,0.3267,0.3288,0.3347,0.3415,0.3464,0.352,0.3577,0.3606,0.3665,0.3712,0.3785,0.3832,0.3926,0.3999,0.4076,0.4119,0.4141,0.4145,0.4158,0.4148,0.413,0.4143,0.4057,0.4143,0.4143,0.4143,0.4143,0.4142,0.3298,0.334,0.3404,0.347,0.3517,0.357,0.3617,0.3663,0.3723,0.3803,0.3828,0.3904,0.3971,0.4077,0.412,0.4182,0.4181,0.4199,0.4204,0.4208,0.4209,0.4118,0.4196,0.4196,0.4196,0.4196,0.4196,0,0.3355,0.3398,0.3457,0.3536,0.3588,0.3603,0.3667,0.3711,0.3777,0.3837,0.3896,0.3981,0.4054,0.4116,0.4191,0.423,0.4242,0.4248,0.4247,0.4257,0.4204,0.4187,0.4237,0.4237,0.4237,0.4237,0.4237,0.4237,0.339,0.3463,0.3493,0.3591,0.3635,0.3708,0.3744,0.3795,0.3843,0.3937,0.3996,0.4036,0.4098,0.4179,0.4247,0.4264,0.4292,0.4296,0.4316,0.4265,0.426,0.4256,0.424,0.4301,0.4301,0.4364,0.4365,0.4365]},{"header":{"parameterUnit":"m.s-1","parameterCategory":1,"la1":30.2991,"la2":30.254,"lo1":-89.0895,"lo2":-89.0444,"dy":0.0017,"dx":0.0017,"nx":28,"ny":28,"refTime":"2024-08-04T21:00:00:Z","depth":0,"parameterNumber":3,"parameterNumberName":"V-component_of_WINDS"},"data":[0,0,0,0,0,0,0,0,0,0,0,0,0,0,0,0,0,0,0,0,0,0,0,0,0,0,0,0,0,0,0,0,0,0,0,0,0,0,0,0,0,0,0,0,0,0,0,0,0,0,0,0,0,0,0,0,0,0,-3.103,-3.103,0,-3.1036,-3.1036,-3.1036,-3.1121,-3.1123,-3.1125,-3.1127,-3.1129,-3.1127,-3.1125,0,0,0,0,0,0,0,0,0,0,0,0,0,-3.109,-3.1088,-3.103,-3.103,-3.1031,-3.1036,-3.1036,-3.1036,-3.112,-3.1123,-3.1126,-3.1128,-3.1129,-3.1127,-3.1125,0,0,0,0,0,0,0,0,0,0,0,0,0,-3.1076,-3.1088,-3.103,-3.1073,-3.1077,-3.1036,-3.1036,-3.1036,-3.112,-3.1123,-3.1126,-3.1129,-3.113,-3.1127,-3.1124,-3.1041,0,0,-3.1115,-3.1114,0,0,0,0,0,0,0,0,-3.1077,-3.1074,-3.1067,-3.107,-3.1075,-3.1081,-3.1058,-3.1038,-3.1119,-3.1103,-3.1127,-3.1131,-3.111,-3.1109,-3.1103,-3.1041,-3.1041,-3.1115,-3.1113,-3.1112,-3.1111,0,0,0,0,0,0,0,-3.1078,-3.1074,-3.1033,-3.1067,-3.1071,-3.1092,-3.1093,-3.1054,-3.1088,-3.1105,-3.1111,-3.1111,-3.1113,-3.1105,-3.1103,-3.1041,-3.1115,-3.1112,-3.1111,-3.1109,-3.0915,-3.0911,0,0,0,0,0,0,-3.1073,-3.1075,-3.1032,-3.1033,-3.1084,-3.1088,-3.109,-3.1076,-3.1089,-3.1094,-3.1108,-3.1115,-3.1109,-3.1107,-3.1104,-3.1009,-3.1112,-3.1109,-3.1107,-3.0918,-3.0914,-3.091,0,0,0,0,0,0,-3.1074,-3.1069,-3.1032,-3.1055,-3.1052,-3.1083,-3.1067,-3.1074,-3.1067,-3.1092,-3.1098,-3.1095,-3.1111,-3.1108,-3.1057,-3.101,-3.1108,-3.1105,-3.0922,-3.0917,-3.0912,-3.0816,0,0,0,0,0,0,-3.1076,-3.1069,-3.1038,-3.1054,-3.1051,-3.0985,-3.1064,-3.1072,-3.1062,-3.1071,-3.108,-3.1085,-3.1114,-3.1061,-3.1054,-3.1007,-3.1103,-3.0926,-3.092,-3.0914,-3.0824,-3.0809,-3.0796,0,0,0,0,0,-3.1077,-3.1009,-3.1036,-3.103,-3.1013,-3.0983,-3.0981,-3.1016,-3.1058,-3.1027,-3.1043,-3.1085,-3.1016,-3.1055,-3.1048,-3.1,-3.093,-3.0922,-3.0914,-3.083,-3.0812,-3.0796,0,0,0,0,0,0,-3.0983,-3.1012,-3.1041,-3.0976,-3.0977,-3.0997,-3.0958,-3.0995,-3.0982,-3.099,-3.1034,-3.1035,-3.0978,-3.0984,-3.1026,-3.0921,-3.098,-3.0971,-3.0919,-3.0902,-3.0888,-3.0887,-3.11,0,0,0,0,0,-3.0955,-3.093,-3.0956,-3.0895,-3.0895,-3.0926,-3.0914,-3.0942,-3.0944,-3.0944,-3.0956,-3.0955,-3.0934,-3.0918,-3.09,-3.0826,-3.083,-3.079,-3.0776,-3.0764,-3.0755,-3.0718,-3.07,-3.0885,-3.0885,-3.0885,0,0,-3.0896,-3.0909,-3.0889,-3.0877,-3.088,-3.0852,-3.0926,-3.0892,-3.0871,-3.0938,-3.0891,-3.0901,-3.0902,-3.084,-3.0813,-3.0843,-3.0705,-3.0754,-3.0745,-3.0742,-3.0708,-3.069,-3.0675,-3.088,-3.0881,-3.0882,0,0,-3.0774,-3.0781,-3.0733,-3.0736,-3.0742,-3.0764,-3.0752,-3.0768,-3.0777,-3.0732,-3.0782,-3.0758,-3.072,-3.0719,-3.0714,-3.0596,-3.0634,-3.0589,-3.0514,-3.0478,-3.0463,-3.0451,-3.0409,-3.0393,-3.058,-3.058,-3.058,0,-3.07,-3.066,-3.0703,-3.0667,-3.066,-3.0723,-3.0674,-3.0674,-3.0672,-3.0666,-3.0701,-3.0656,-3.0662,-3.0601,-3.0573,-3.0566,-3.0554,-3.0587,-3.0462,-3.045,-3.0439,-3.0399,-3.0383,-3.0575,-3.0575,-3.0576,-3.0576,0,-3.0569,-3.0541,-3.0501,-3.05,-3.049,-3.0447,-3.0483,-3.0467,-3.0497,-3.0516,-3.0469,-3.0479,-3.0464,-3.0452,-3.0479,-3.0396,-3.0415,-3.0455,-3.0515,-3.0415,-3.0379,-3.0364,-3.0567,-3.0569,-3.057,-3.0572,0,0,-3.0384,-3.0411,-3.0395,-3.0397,-3.0409,-3.0388,-3.0349,-3.0337,-3.0323,-3.032,-3.0289,-3.0257,-3.0296,-3.029,-3.0318,-3.0286,-3.0194,-3.0331,-3.0332,-3.0305,-3.0103,-3.0071,-3.0053,-3.022,-3.0217,-3.0215,-3.0102,0,-3.0266,-3.0203,-3.0242,-3.0172,-3.0147,-3.0207,-3.0174,-3.0178,-3.0195,-3.0176,-3.0195,-3.0172,-3.0225,-3.0222,-3.0193,-3.0211,-3.0153,-3.022,-3.019,-3.0188,-3.0186,-3.0034,-3.0,-2.9893,-3.0088,-3.0086,-3.0084,0,-3.0119,-3.0114,-3.0042,-3.0062,-3.0053,-3.0022,-3.0016,-2.9997,-3.0003,-3.0018,-3.0013,-3.0051,-3.0014,-3.0076,-3.0026,-3.007,-3.0061,-3.0068,-3.0065,-3.0062,-3.0129,-3.0026,-2.986,-2.9843,-3.0062,-3.0064,-3.0066,0,-2.9992,-2.9966,-2.992,-2.992,-2.9942,-2.9919,-2.9927,-2.9937,-2.9928,-2.9922,-2.9917,-2.9906,-2.99,-2.989,-2.9924,-2.9966,-2.987,-2.9934,-2.9881,-2.988,-2.9856,-2.9857,-2.9685,-2.9852,-2.9852,-2.9853,-2.9853,0,-2.9855,-2.9809,-2.9864,-2.9835,-2.9786,-2.9832,-2.9781,-2.9795,-2.9804,-2.9779,-2.9831,-2.9807,-2.9854,-2.9834,-2.986,-2.9815,-2.9812,-2.9823,-2.983,-2.9817,-2.9816,-2.9811,-2.9818,-2.9848,-2.9849,-2.985,-2.9851,0,-2.9703,-2.9738,-2.9692,-2.9718,-2.9724,-2.9686,-2.9708,-2.9683,-2.9706,-2.9674,-2.9669,-2.9704,-2.9684,-2.9718,-2.9701,-2.9719,-2.9656,-2.9676,-2.9654,-2.966,-2.9605,-2.9609,-2.9422,-2.94,-2.9582,-2.958,-2.9579,0,-2.9613,-2.9579,-2.9603,-2.9591,-2.9597,-2.9577,-2.9569,-2.9614,-2.9604,-2.9611,-2.9584,-2.9569,-2.9559,-2.9525,-2.9548,-2.9536,-2.9554,-2.949,-2.9553,-2.9542,-2.9553,-2.9554,-2.9551,-2.9476,-2.9474,-2.9472,-2.9471,0,-2.9449,-2.9469,-2.9457,-2.9451,-2.9441,-2.9438,-2.9439,-2.9426,-2.9474,-2.946,-2.9441,-2.9434,-2.9419,-2.9403,-2.9398,-2.9405,-2.9445,-2.9452,-2.9439,-2.9424,-2.9413,-2.9418,-2.9618,-2.9455,-2.9456,-2.9457,-2.9458,-2.9459,-2.9325,-2.9298,-2.9312,-2.9297,-2.9303,-2.9304,-2.9282,-2.9304,-2.9289,-2.9282,-2.9309,-2.9285,-2.9294,-2.9291,-2.9295,-2.9276,-2.9305,-2.9286,-2.9281,-2.9275,-2.9267,-2.9418,-2.9276,-2.9276,-2.9277,-2.9277,-2.9277,0,-2.9163,-2.9176,-2.9162,-2.9164,-2.9152,-2.9195,-2.9199,-2.9186,-2.9164,-2.917,-2.9161,-2.914,-2.9126,-2.915,-2.914,-2.912,-2.9139,-2.9116,-2.9117,-2.9118,-2.9242,-2.9254,-2.9102,-2.9102,-2.9102,-2.9102,-2.9102,-2.9102,-2.9078,-2.9036,-2.9058,-2.902,-2.9034,-2.9011,-2.901,-2.9011,-2.9017,-2.8992,-2.8982,-2.8998,-2.9012,-2.9004,-2.8993,-2.9001,-2.8994,-2.8965,-2.8978,-2.9092,-2.911,-2.9126,-2.9137,-2.8963,-2.8963,-2.8857,-2.8856,-2.8855]}]]